When you browse on this site, cookies collect data to enhance your experience and personalize the content and advertising you see.
Visit our Privacy Policy to learn more. By continuing to use the site, you agree to this use of cookies and data.
  • In Lithuania
  • List of Countries
  • For 7 days
  • Water Temperature
  • Satellite Maps
  • Weather Map
  • Weather Widgets
  • user-avatar
    Login

    Hourly Weather Mingachevir

    Today, 26 March, Tuesday

    Time Temperature Precipitation Wind Pressure Humidity
    00:00 +3°C° 0.1 mm 5 mps 754 mmHg 75%
    01:00 +3°C° 0 mm 5 mps 754 mmHg 75%
    02:00 +4°C° 0 mm 4 mps 754 mmHg 75%
    03:00 +4°C° 0 mm 4 mps 754 mmHg 75%
    04:00 +3°C° 0 mm 4 mps 754 mmHg 77%
    05:00 +3°C° 0 mm 3 mps 754 mmHg 79%
    06:00 +4°C° 0 mm 2 mps 754 mmHg 81%
    07:00 +4°C° 0 mm 3 mps 754 mmHg 76%
    08:00 +5°C° 0 mm 3 mps 754 mmHg 71%
    09:00 +7°C° 0 mm 3 mps 754 mmHg 67%
    10:00 +8°C° 0 mm 3 mps 754 mmHg 64%
    11:00 +9°C° 0 mm 3 mps 753 mmHg 61%
    12:00 +10°C° 0 mm 3 mps 753 mmHg 57%
    13:00 +10°C° 0 mm 3 mps 752 mmHg 56%
    14:00 +11°C° 0 mm 3 mps 752 mmHg 55%
    15:00 +11°C° 0 mm 4 mps 752 mmHg 54%
    16:00 +11°C° 0 mm 3 mps 752 mmHg 57%
    17:00 +10°C° 0 mm 2 mps 752 mmHg 60%
    18:00 +10°C° 0 mm 2 mps 752 mmHg 62%
    19:00 +10°C° 0 mm 1 mps 752 mmHg 65%
    20:00 +10°C° 0 mm 1 mps 752 mmHg 68%
    21:00 +8°C° 0 mm 0 mps 752 mmHg 71%
    22:00 +8°C° 0 mm 0 mps 752 mmHg 73%
    23:00 +7°C° 0 mm 0 mps 752 mmHg 75%

    Tomorrow, 27 March, Wednesday

    Time Temperature Precipitation Wind Pressure Humidity
    00:00 +7°C° 0 mm 0 mps 752 mmHg 76%
    01:00 +7°C° 0 mm 0 mps 752 mmHg 78%
    02:00 +6°C° 0 mm 0 mps 752 mmHg 81%
    03:00 +6°C° 0 mm 0 mps 751 mmHg 83%
    04:00 +7°C° 0 mm 1 mps 751 mmHg 84%
    05:00 +7°C° 0 mm 1 mps 751 mmHg 84%
    06:00 +7°C° 0 mm 1 mps 751 mmHg 85%
    07:00 +8°C° 0 mm 1 mps 751 mmHg 76%
    08:00 +9°C° 0 mm 2 mps 750 mmHg 68%
    09:00 +11°C° 0 mm 3 mps 750 mmHg 59%
    10:00 +12°C° 0 mm 3 mps 750 mmHg 53%
    11:00 +14°C° 0 mm 3 mps 749 mmHg 48%
    12:00 +17°C° 0 mm 3 mps 749 mmHg 42%
    13:00 +17°C° 0 mm 3 mps 749 mmHg 40%
    14:00 +18°C° 0 mm 3 mps 748 mmHg 39%
    15:00 +19°C° 0 mm 2 mps 748 mmHg 37%
    16:00 +18°C° 0 mm 2 mps 748 mmHg 40%
    17:00 +18°C° 0 mm 2 mps 749 mmHg 44%
    18:00 +18°C° 0 mm 1 mps 749 mmHg 48%
    19:00 +16°C° 0 mm 2 mps 750 mmHg 51%
    20:00 +15°C° 0 mm 2 mps 750 mmHg 54%
    21:00 +15°C° 0 mm 2 mps 751 mmHg 57%
    22:00 +14°C° 0 mm 2 mps 751 mmHg 57%
    23:00 +14°C° 0 mm 2 mps 751 mmHg 56%

    Day after tomorrow, 28 March, Thursday

    Time Temperature Precipitation Wind Pressure Humidity
    00:00 +13°C° 0 mm 2 mps 751 mmHg 55%
    01:00 +13°C° 0 mm 2 mps 752 mmHg 55%
    02:00 +12°C° 0 mm 2 mps 752 mmHg 55%
    03:00 +12°C° 0 mm 2 mps 752 mmHg 55%
    04:00 +10°C° 0 mm 3 mps 752 mmHg 56%
    05:00 +10°C° 0 mm 3 mps 752 mmHg 57%
    06:00 +10°C° 0 mm 3 mps 752 mmHg 58%
    07:00 +11°C° 0 mm 4 mps 753 mmHg 52%
    08:00 +13°C° 0 mm 5 mps 753 mmHg 47%
    09:00 +14°C° 0 mm 6 mps 753 mmHg 42%
    10:00 +15°C° 0 mm 5 mps 753 mmHg 39%
    11:00 +16°C° 0 mm 5 mps 752 mmHg 36%
    12:00 +17°C° 0 mm 5 mps 752 mmHg 32%
    13:00 +17°C° 0 mm 5 mps 752 mmHg 32%
    14:00 +19°C° 0 mm 4 mps 752 mmHg 32%
    15:00 +19°C° 0 mm 4 mps 752 mmHg 32%
    16:00 +18°C° 0.1 mm 4 mps 752 mmHg 36%
    17:00 +17°C° 0.1 mm 4 mps 752 mmHg 40%
    18:00 +15°C° 0.1 mm 4 mps 752 mmHg 44%
    19:00 +14°C° 0.3 mm 4 mps 753 mmHg 48%
    20:00 +13°C° 0.3 mm 4 mps 753 mmHg 52%
    21:00 +13°C° 0.3 mm 4 mps 754 mmHg 56%
    22:00 +12°C° 0.5 mm 3 mps 754 mmHg 60%
    23:00 +11°C° 0.5 mm 3 mps 754 mmHg 64%

    29 March, Friday

    Time Temperature Precipitation Wind Pressure Humidity
    00:00 +11°C° 0.5 mm 3 mps 754 mmHg 68%
    01:00 +10°C° 0.2 mm 3 mps 754 mmHg 69%
    02:00 +10°C° 0.2 mm 2 mps 754 mmHg 71%
    03:00 +10°C° 0.2 mm 2 mps 755 mmHg 72%
    04:00 +10°C° 0 mm 1 mps 755 mmHg 73%
    05:00 +10°C° 0 mm 1 mps 755 mmHg 74%
    06:00 +10°C° 0 mm 1 mps 755 mmHg 75%
    07:00 +11°C° 0 mm 1 mps 755 mmHg 69%
    08:00 +10°C° 0 mm 2 mps 755 mmHg 64%
    09:00 +12°C° 0 mm 2 mps 755 mmHg 59%
    10:00 +12°C° 0.1 mm 2 mps 755 mmHg 59%
    11:00 +10°C° 0.1 mm 3 mps 755 mmHg 60%
    12:00 +10°C° 0.1 mm 3 mps 754 mmHg 61%
    13:00 +10°C° 0.1 mm 3 mps 754 mmHg 60%
    14:00 +11°C° 0.1 mm 3 mps 754 mmHg 58%
    15:00 +11°C° 0.1 mm 3 mps 754 mmHg 56%
    16:00 +10°C° 0.3 mm 3 mps 754 mmHg 60%
    17:00 +10°C° 0.3 mm 2 mps 755 mmHg 64%
    18:00 +9°C° 0.3 mm 2 mps 755 mmHg 68%
    19:00 +9°C° 1 mm 2 mps 756 mmHg 73%
    20:00 +8°C° 1 mm 2 mps 756 mmHg 77%
    21:00 +9°C° 1 mm 1 mps 757 mmHg 81%
    22:00 +9°C° 0.8 mm 1 mps 757 mmHg 83%
    23:00 +8°C° 0.8 mm 1 mps 757 mmHg 84%

    30 March, Saturday

    Time Temperature Precipitation Wind Pressure Humidity
    00:00 +7°C° 0.8 mm 0 mps 757 mmHg 86%
    01:00 +8°C° 0.5 mm 1 mps 757 mmHg 87%
    02:00 +8°C° 0.5 mm 1 mps 757 mmHg 87%
    03:00 +8°C° 0.5 mm 1 mps 757 mmHg 88%
    04:00 +8°C° 0.5 mm 1 mps 758 mmHg 89%
    05:00 +7°C° 0.5 mm 2 mps 758 mmHg 89%
    06:00 +7°C° 0.5 mm 2 mps 758 mmHg 89%
    07:00 +7°C° 0.4 mm 3 mps 758 mmHg 86%
    08:00 +6°C° 0.4 mm 4 mps 759 mmHg 83%
    09:00 +6°C° 0.4 mm 5 mps 759 mmHg 80%
    10:00 +6°C° 0.1 mm 5 mps 759 mmHg 77%
    11:00 +7°C° 0.1 mm 5 mps 758 mmHg 74%
    12:00 +7°C° 0.1 mm 5 mps 758 mmHg 72%
    13:00 +8°C° 0 mm 5 mps 758 mmHg 70%
    14:00 +8°C° 0 mm 4 mps 758 mmHg 69%
    15:00 +8°C° 0 mm 4 mps 758 mmHg 68%
    16:00 +8°C° 0 mm 4 mps 758 mmHg 70%
    17:00 +8°C° 0 mm 4 mps 758 mmHg 71%
    18:00 +8°C° 0 mm 3 mps 758 mmHg 73%
    19:00 +8°C° 0 mm 3 mps 759 mmHg 75%
    20:00 +8°C° 0 mm 3 mps 759 mmHg 77%
    21:00 +8°C° 0 mm 3 mps 759 mmHg 79%
    22:00 +7°C° 0 mm 3 mps 759 mmHg 81%
    23:00 +7°C° 0 mm 3 mps 759 mmHg 82%

    31 March, Sunday

    Time Temperature Precipitation Wind Pressure Humidity
    00:00 +7°C° 0 mm 3 mps 759 mmHg 84%
    01:00 +5°C° 0.1 mm 3 mps 758 mmHg 84%
    02:00 +5°C° 0.1 mm 3 mps 758 mmHg 84%
    03:00 +6°C° 0.1 mm 2 mps 758 mmHg 84%
    04:00 +6°C° 0 mm 2 mps 757 mmHg 84%
    05:00 +6°C° 0 mm 2 mps 757 mmHg 84%
    06:00 +6°C° 0 mm 2 mps 757 mmHg 84%
    07:00 +6°C° 0 mm 2 mps 757 mmHg 82%
    08:00 +7°C° 0 mm 2 mps 757 mmHg 80%
    09:00 +7°C° 0 mm 3 mps 756 mmHg 77%
    10:00 +8°C° 0 mm 3 mps 756 mmHg 73%
    11:00 +9°C° 0 mm 3 mps 755 mmHg 69%
    12:00 +10°C° 0 mm 3 mps 754 mmHg 65%
    13:00 +10°C° 0 mm 4 mps 754 mmHg 65%
    14:00 +11°C° 0 mm 4 mps 753 mmHg 65%
    15:00 +11°C° 0 mm 4 mps 752 mmHg 65%
    16:00 +11°C° 0.1 mm 4 mps 752 mmHg 69%
    17:00 +10°C° 0.1 mm 4 mps 752 mmHg 73%
    18:00 +8°C° 0.1 mm 4 mps 752 mmHg 77%
    19:00 +9°C° 0 mm 3 mps 752 mmHg 78%
    20:00 +9°C° 0 mm 3 mps 752 mmHg 78%
    21:00 +9°C° 0 mm 3 mps 752 mmHg 79%
    22:00 +9°C° 0 mm 3 mps 751 mmHg 80%
    23:00 +9°C° 0 mm 2 mps 751 mmHg 82%
    Show more